Find Starlink 34461

NORAD ID: 64418 Int'l Des: 2025-129 Owner: SPXS Country: US Constellation: starlink operational
LEOCIRCULAR

Current View

Loading 3D Globe...

About Starlink 34461

Description loading...

Upcoming Passes

Passes for default location (London). Set your location on the main map for personalized predictions.

Altitude History

Loading altitude history...

Two-Line Element Set

1 64418U 25129G 26150.60937961 -.00002813 00000-0 -22795-3 0 9991
2 64418 70.0016 228.0803 0003202 267.0108 93.0684 14.98341962 53558
Epoch: May 30, 2026 • Age: 22 hours

Current Status

Altitude 574.4 km
Velocity 7.57 km/s
Sub-Earth Point 12.79°N, 144.64°E
Launch Date Jun 17, 2025
Age 0.9 years
Type internet

Technical Details

Classification Payload
Mass 575.00 kg
Dry Mass 530.00 kg
Total Mass 575.00 kg
Length 0.30 m
Diameter 4.10 m
Span 29.00 m
Shape Box + pan
Manufacturer SPXS
Bus Type Starlink V2MO
Phase Status In Orbit
Owner/State SPXS/US

Most Searched